Location: Privas
(44.7330°N, 4.6000°E)
Time: 13:26:48
(UTC+02:00)

ISS - Visible Passes

Search period start: 22 May 2019 00:00
Search period end: 01 June 2019 00:00
Orbit: 407 x 410 km, 51.6° (Epoch: 22 May)

Date Brightness Start Highest point End Pass type
(mag) Time Alt. Az. Time Alt. Az. Time Alt. Az.
22 May -1.6 01:10:05 10° NW 01:12:55 26° N 01:14:16 20° NE visible
22 May -1.1 02:46:35 10° WNW 02:46:56 12° WNW 02:46:56 12° WNW visible
22 May -2.0 22:41:36 10° W 22:44:39 34° NNW 22:47:43 10° NE visible
23 May -1.4 00:19:05 10° NW 00:21:51 24° N 00:24:36 10° ENE visible
23 May -1.7 01:55:44 10° NW 01:57:19 24° NW 01:57:19 24° NW visible
23 May -2.6 21:50:27 10° W 21:53:39 46° NNW 21:56:51 10° NE visible
23 May -1.4 23:28:00 10° WNW 23:30:45 24° N 23:33:30 10° NE visible
24 May -2.2 01:04:53 10° NW 01:07:50 34° NNE 01:07:50 34° NNE visible
24 May -1.5 22:36:49 10° WNW 22:39:39 26° N 22:42:30 10° NE visible
25 May -1.8 00:13:59 10° NW 00:16:53 28° NNE 00:18:26 19° NE visible
25 May -1.2 01:50:27 10° WNW 01:51:09 15° WNW 01:51:09 15° WNW visible
25 May -1.8 21:45:35 10° WNW 21:48:34 30° NNW 21:51:33 10° NE visible
25 May -1.6 23:23:00 10° NW 23:25:47 25° N 23:28:35 10° ENE visible
26 May -2.4 00:59:34 10° NW 01:01:47 37° NW 01:01:47 37° NW visible
26 May -1.5 22:31:54 10° NW 22:34:40 23° N 22:37:24 10° ENE visible
27 May -2.6 00:08:40 10° NW 00:11:49 40° NNE 00:12:27 35° NE visible
27 May -2.1 23:17:45 10° NW 23:20:45 30° NNE 23:23:08 14° ENE visible
28 May -2.0 00:54:14 10° WNW 00:55:50 26° WNW 00:55:50 26° WNW visible
28 May -1.8 22:26:47 10° NW 22:29:37 26° N 22:32:28 10° ENE visible
29 May -3.7 00:03:16 10° WNW 00:06:32 73° NNE 00:06:32 73° NNE visible
29 May -3.0 23:12:21 10° NW 23:15:34 47° NNE 23:17:15 23° E visible
30 May -1.3 00:49:06 10° WNW 00:49:58 16° W 00:49:58 16° W visible
30 May -2.4 22:21:24 10° NW 22:24:28 34° NNE 22:27:32 10° E visible
30 May -3.2 23:57:55 10° WNW 00:00:43 47° WSW 00:00:43 47° WSW visible
31 May -3.9 23:06:53 10° WNW 23:10:12 88° SSW 23:11:29 34° ESE visible
